This demonstration page uses our WeatherBlox Daily Observations layout. Learn more.

Left ArrowRight Arrow

Hourly Observations for February 15, 2016

Temp ( °F °C ) Dew Point ( °F °C ) Humidity (%) Winds ( mph kmh ) Pressure ( in mb ) Visibility ( mi km ) Precip ( " mm )
12:14 am 00:14 Cloudy 19 -7 16 -9 86 86 SSE 9 15 30.12 1020 10 16 N/A
12:34 am 00:34 Cloudy 19 -7 16 -9 86 86 SSE 7 11 30.12 1020 10 16 N/A
12:55 am 00:55 Cloudy 19 -7 16 -9 86 86 SSE 8 13 30.12 1020 10 16 N/A
1:14 am 01:14 Cloudy 19 -7 16 -9 86 86 SSE 8 13 30.12 1020 7 11 N/A
1:34 am 01:34 Cloudy 19 -7 18 -8 93 93 SSE 9 15 30.12 1020 7 11 N/A
1:55 am 01:55 Cloudy 19 -7 18 -8 93 93 SSE 7 11 30.09 1019 5 8 N/A
2:14 am 02:14 Cloudy 19 -7 18 -8 93 93 SSE 6 9 30.09 1019 7 11 N/A
2:34 am 02:34 Cloudy 19 -7 18 -8 93 93 SSE 6 9 30.09 1019 7 11 N/A
2:55 am 02:55 Cloudy 19 -7 18 -8 93 93 SSE 6 9 30.09 1019 5 8 N/A
3:14 am 03:14 Cloudy 19 -7 19 -7 100 100 SSE 6 9 30.09 1019 7 11 N/A
3:34 am 03:34 Cloudy 19 -7 19 -7 100 100 SSE 6 9 30.06 1018 7 11 N/A
3:55 am 03:55 Cloudy 21 -6 19 -7 93 93 SSE 7 11 30.06 1018 7 11 N/A
4:14 am 04:14 Cloudy 21 -6 19 -7 93 93 SSE 7 11 30.06 1018 7 11 N/A
4:34 am 04:34 Cloudy 21 -6 19 -7 93 93 SSE 7 11 30.06 1018 5 8 N/A
4:55 am 04:55 Cloudy 21 -6 19 -7 93 93 S 6 9 30.06 1018 4 6 N/A
5:14 am 05:14 Cloudy 21 -6 19 -7 93 93 S 7 11 30.06 1018 3 5 N/A
5:34 am 05:34 Cloudy 21 -6 21 -6 100 100 S 7 11 30.06 1018 3 5 N/A
5:55 am 05:55 Cloudy 21 -6 21 -6 100 100 S 5 7 30.06 1018 2 3 N/A
6:14 am 06:14 Cloudy 21 -6 21 -6 100 100 S 5 7 30.06 1018 2 3 N/A
6:35 am 06:35 Cloudy 21 -6 21 -6 100 100 S 6 9 30.06 1018 2 3 N/A
6:54 am 06:54 Cloudy 21 -6 21 -6 100 100 S 5 7 30.06 1018 3 4 N/A
7:14 am 07:14 Cloudy 23 -5 21 -6 93 93 SSE 6 9 30.03 1017 3 5 N/A
7:35 am 07:35 Cloudy 23 -5 21 -6 93 93 S 6 9 30.03 1017 3 5 N/A
7:54 am 07:54 Cloudy 23 -5 21 -6 93 93 S 7 11 30.03 1017 4 6 N/A
8:14 am 08:14 Cloudy 23 -5 21 -6 93 93 S 6 9 30.03 1017 3 4 N/A
8:35 am 08:35 Cloudy 23 -5 23 -5 100 100 S 7 11 30.03 1017 3 4 N/A
8:54 am 08:54 Cloudy 23 -5 23 -5 100 100 S 6 9 30.03 1017 3 4 N/A
9:14 am 09:14 Cloudy 25 -4 23 -5 93 93 S 7 11 30.03 1017 3 4 N/A
9:35 am 09:35 Cloudy 25 -4 23 -5 93 93 SSE 7 11 30.00 1016 3 5 N/A
9:54 am 09:54 Cloudy 25 -4 25 -4 100 100 S 6 9 30.00 1016 3 5 N/A
10:14 am 10:14 Cloudy 25 -4 25 -4 100 100 S 6 9 30.00 1016 3 5 N/A
10:35 am 10:35 Cloudy 27 -3 25 -4 93 93 S 6 9 30.00 1016 3 4 N/A
10:54 am 10:54 Cloudy 27 -3 25 -4 93 93 S 5 7 30.00 1016 3 5 N/A
11:14 am 11:14 Cloudy 27 -3 25 -4 93 93 S 8 13 30.00 1016 3 4 N/A
11:35 am 11:35 Cloudy 27 -3 27 -3 100 100 S 7 11 30.00 1016 3 4 N/A
11:54 am 11:54 Cloudy 28 -2 27 -3 93 93 S 6 9 30.00 1016 3 4 N/A
12:14 pm 12:14 Cloudy 28 -2 27 -3 93 93 SSW 7 11 29.97 1015 3 5 N/A
12:35 pm 12:35 Cloudy 28 -2 27 -3 93 93 SW 7 11 29.97 1015 5 8 N/A
12:54 pm 12:54 Cloudy 30 -1 27 -3 86 86 SW 5 7 29.97 1015 5 8 N/A
1:14 pm 13:14 Cloudy 30 -1 27 -3 86 86 SW 6 9 29.97 1015 5 8 N/A
1:35 pm 13:35 Cloudy 30 -1 27 -3 86 86 SSW 7 11 29.94 1014 5 8 N/A
1:54 pm 13:54 Cloudy 30 -1 27 -3 86 86 S 6 9 29.94 1014 5 8 N/A
2:14 pm 14:14 Cloudy 30 -1 27 -3 86 86 S 6 9 29.94 1014 7 11 N/A
2:35 pm 14:35 Cloudy 30 -1 28 -2 93 93 SSW 6 9 29.94 1014 5 8 N/A
2:54 pm 14:54 Cloudy 30 -1 28 -2 93 93 S 6 9 29.91 1013 7 11 N/A
3:14 pm 15:14 Cloudy 32 undefined 28 -2 87 87 SSW 3 6 29.91 1013 7 11 N/A
3:35 pm 15:35 Partly Cloudy 32 undefined 28 -2 87 87 S 3 6 29.91 1013 7 11 N/A
3:54 pm 15:54 Sunny 32 undefined 28 -2 87 87 SSE 5 7 29.91 1013 7 11 N/A
4:14 pm 16:14 Sunny 32 undefined 28 -2 87 87 S 3 6 29.91 1013 7 11 N/A
4:35 pm 16:35 Sunny 32 undefined 28 -2 87 87 SSE 3 6 29.91 1013 7 11 N/A
4:54 pm 16:54 Sunny 32 undefined 28 -2 87 87 ESE 3 6 29.88 1012 5 8 N/A
5:15 pm 17:15 Sunny 32 undefined 28 -2 87 87 SE 3 6 29.88 1012 4 6 N/A
5:34 pm 17:34 Sunny 30 -1 28 -2 93 93 SE 3 6 29.88 1012 4 6 N/A
5:54 pm 17:54 Sunny 30 -1 28 -2 93 93 N N/A 29.88 1012 4 6 N/A
6:15 pm 18:15 Mostly Cloudy 30 -1 28 -2 93 93 SE 3 6 29.88 1012 5 8 N/A
6:34 pm 18:34 Partly Cloudy 30 -1 28 -2 93 93 N N/A 29.88 1012 5 8 N/A
6:54 pm 18:54 Partly Cloudy 30 -1 28 -2 93 93 N N/A 29.88 1012 5 8 N/A
7:15 pm 19:15 Clear 30 -1 28 -2 93 93 N N/A 29.88 1012 5 8 N/A
7:34 pm 19:34 Clear 28 -2 28 -2 100 100 N N/A 29.88 1012 5 8 N/A
7:54 pm 19:54 Clear 28 -2 28 -2 100 100 N N/A 29.88 1012 5 8 N/A
8:15 pm 20:15 Partly Cloudy 28 -2 27 -3 93 93 N N/A 29.88 1012 4 6 N/A
8:34 pm 20:34 Cloudy 28 -2 27 -3 93 93 N N/A 29.88 1012 4 6 N/A
8:54 pm 20:54 Cloudy 28 -2 27 -3 93 93 N N/A 29.88 1012 3 5 N/A
9:15 pm 21:15 Cloudy 28 -2 28 -2 100 100 N N/A 29.88 1012 4 6 N/A
9:34 pm 21:34 Cloudy 30 -1 28 -2 93 93 N N/A 29.88 1012 4 6 N/A
9:54 pm 21:54 Cloudy 30 -1 28 -2 93 93 N N/A 29.88 1012 3 5 N/A
10:15 pm 22:15 Cloudy 30 -1 28 -2 93 93 N N/A 29.88 1012 3 5 N/A
10:34 pm 22:34 Cloudy 30 -1 28 -2 93 93 N N/A 29.88 1012 3 5 N/A
10:54 pm 22:54 Cloudy 28 -2 28 -2 100 100 N N/A 29.85 1011 3 5 N/A
11:15 pm 23:15 Cloudy 28 -2 28 -2 100 100 N N/A 29.88 1012 3 5 N/A
11:34 pm 23:34 Cloudy 28 -2 28 -2 100 100 N N/A 29.85 1011 3 5 N/A
11:54 pm 23:54 Cloudy 28 -2 28 -2 100 100 N N/A 29.85 1011 3 5 N/A

Powered by AerisWeather